Showing default

LEMUR 2 ZACHARY, 42845

Orbit data source: Space-Track

LEMUR 2 ZACHARY, 42845 is a payload satellite owned by Spire (US) in SSO that was launched on Fri, 14 Jul 2017 UTC via a SOYUZ-2-1A launch vehicle from the Tyuratam Missile And Space Complex (TTMTR). Payload-class satellites include a variety of spacecraft equipped with specific instruments for various scientific and technological missions. These include communications satellites like Starlink; space stations such as the ISS; scientific satellites like the Hubble; Earth observation satellites from companies like Planet Labs, Umbra, and HawkEye 360; GPS; miniature CubeSats for education and research; and military/defense satellites.

Loading next visibility...
Identifier
42845, 2017-042W
Orbit
SSO
Country
Flag of USUS
Related business
Manufacturer
Spire/Glasgow
Mission
Operational Commercial Com/MetRO
Bus & Motor
CUBESAT 3U, Unknown motor
Mass
4 kg wet, 4 kg dry
Launch date (UTC)
2017-07-14 (9 years ago)
Launch vehicle
SOYUZ-2-1A
Launch site
Tyuratam Missile And Space Complex (TTMTR)
Object type
Payload
Rocket body
Debris
Shape & HBR
Box, 0.5 m
Radar Cross Section
0.093 m², Small (<0.1 m²)

Expand to show TLE details & history
Last TLE update: 11 hours ago

TLE from 11 hours ago
0 LEMUR 2 ZACHARY
1 42845U 17042W   26119.51956358  .00039234  00000-0  79651-3 0  9990
2 42845  97.3631 310.2671 0004152 178.6439 181.4823 15.46237793481674
Epoch: 2026-04-29T12:28Z
TLE epoch observation values (Epoch: 2026-04-29T12:28:10.293Z)
Latitude
0.00004°
Longitude
-94.25515°
Altitude
433.696 km
Speed
7.65 km/s
True Right ascension
20h 41m 04s
True Declination
0° 00' 00"
Sunlit
Object was in daylight at epoch
Visualization orbit readout
Latitude
Unknown
Longitude
Unknown
Altitude
Unknown
Speed
Unknown
Apparent Right ascension
Unknown
Apparent Declination
Unknown
Sunlit
N/A
Visualization observer readout
Local Sidereal Time
06:40:14
Azimuth
Unknown
Elevation
Unknown
Doppler factor
Unknown
Orbital elements
Apogee altitude
427.497 km
Perigee altitude
421.848 km
Semi-major axis
6,802.81 km
Eccentricity
0.00042
Inclination
97.3631°
RAAN
310.2671°
Arg. of periapsis
178.6439°
True anomaly
181.48107°
Mean anomaly
181.4823°
Eccentric anomaly
181.48168°
Mean motion
3.86822 °/min
Orbital period
93.07 mins
BSTAR
0.00079651
Loading maneuver chart data...
Computing Atmospheric mass density...
Loading historical data...
Loading historical data...
Loading historical data...
Loading historical data...
Loading historical data...
Loading historical data...
Loading historical data...

Documentation

Showing up to 5 results
|